Regional Weather Roundup
Issued by NWS

Home | Current Version | Previous Version | Text Only | Print | Product List | Glossary Off
Versions: 1 2 3 4 5 6 7 8 9 10 11 12 13 14 15 16 17 18 19 20 21 22 23 24 25 26 27 28 29 30 31 32 33 34 35 36 37 38 39 40 41 42 43 44 45 46 47 48 49 50

871
ASUS43 KTOP 231908
RWRKS

WEATHER ROUNDUP FOR KANSAS
NATIONAL WEATHER SERVICE GOODLAND KS
200 PM CDT THU MAR 23 2017

NOTE:  "FAIR" INDICATES FEW OR NO CLOUDS BELOW 12,000 FEET WITH NO
SIGNIFICANT WEATHER AND/OR OBSTRUCTIONS TO VISIBILITY.

KSZ001>006-013>018-027>032-041>047-232000-
NORTHWEST KANSAS

CITY           SKY/WX    TMP DP  RH WIND       PRES   REMARKS
GOODLAND       SUNNY     78  43  28 S14G24    29.61F
HAYS             N/A     76  58  53 S31G39    29.68F
HILL CITY      PTSUNNY   77  58  51 S21G37    29.65F
RUSSELL        MOSUNNY   72  57  59 S32G41    29.69F
$$

KSZ061>065-074>080-084>089-232000-
SOUTHWEST KANSAS

CITY           SKY/WX    TMP DP  RH WIND       PRES   REMARKS
DODGE CITY     PTSUNNY   80  55  42 S28G40    29.71F HAZE
ELKHART          N/A     78  47  33 SW15        N/A
GARDEN CITY    SUNNY     80  56  43 S24G33    29.68F
GREAT BEND     MOSUNNY   75  59  57 S30G36    29.71F
LIBERAL        SUNNY     79  57  47 S24G31    29.72F
PRATT          SUNNY     76  55  48 S30G37    29.75F
$$

KSZ066>073-081>083-090>101-232000-
SOUTHEAST KANSAS

CITY           SKY/WX    TMP DP  RH WIND       PRES   REMARKS
CHANUTE        SUNNY     75  52  44 S26G33    29.93F
COFFEYVILLE    SUNNY     75  53  46 S18       29.95F
HUTCHINSON     CLOUDY    68  57  68 S26G36    29.80F
MEDICINE LODGE   N/A     78  57  48 S24G35    29.75F
NEWTON         CLOUDY    67  56  67 S30G39    29.82F
PARSONS        SUNNY     75  52  44 S21G31    29.95F
WICHITA INTL   PTSUNNY   68  57  68 S24G35    29.83F
WICHITA JABRA  PTSUNNY   70  56  61 S24G35    29.83F
WICHITA MCCONL PTSUNNY   69  56  62 S23G38    29.84F
WINFIELD       MOSUNNY   74  58  57 S21G29    29.89F
$$

KSZ007>012-019>026-033>040-048>060-102>105-232000-
NORTHEAST KANSAS

CITY           SKY/WX    TMP DP  RH WIND       PRES   REMARKS
CONCORDIA      PTSUNNY   69  57  65 S29G40    29.75F
EMPORIA        SUNNY     72  53  51 S24G35    29.85F
LAWRENCE       SUNNY     78  52  40 SE32G38   29.85F
MANHATTAN      SUNNY     76  54  46 S24G35    29.79F
MARYSVILLE     MOSUNNY   70  54  56 S22G35    29.79S
OLATHE IND     SUNNY     75  51  43 S24G35    29.90F
OLATHE EXE     SUNNY     73  52  47 S23G35    29.91F
SALINA         PTSUNNY   69  56  62 S25G39    29.78F
TOPEKA BILLARD SUNNY     76  54  46 S20G32    29.83F
TOPEKA FORBES  SUNNY     77  53  43 S28G38    29.83F
$$




USA.gov is the U.S. government's official web portal to all federal, state and local government web resources and services.